COSMOS 1275 DEB, 14228

Orbit data source: Space-Track

COSMOS 1275 DEB, 14228 is space debris in LEO originally from a launch on Thu, 04 Jun 1981 UTC launched from the Plesetsk Missile And Space Complex (PKMTR). Debris objects in space refer to the collection of defunct objects orbiting the Earth. Examples of debris include non-operational satellites, rocket bodies, and fragments generated from explosions, collisions, or faulty payload assembly.

Loading next visibility...
Identifier
14228, 1981-053HN
Orbit
LEO
Country
Flag of CISCIS
Related business
Manufacturer
Unknown
Mission
Spacecraft
Bus & Motor
Unknown
Mass
Unknown
Launch date (UTC)
1981-06-04 (45 years ago)
Launch vehicle
Unknown
Launch site
Plesetsk Missile And Space Complex (PKMTR)
Object type
Payload
Rocket body
Debris
Shape & HBR
Unknown shape, 0.1 m
Radar Cross Section
Small (<0.1 m²)

Expand to show TLE details & history
Last TLE update: 10 hours ago

TLE from 10 hours ago
0 COSMOS 1275 DEB
1 14228U 81053HN  26072.66773955  .00001805  00000-0  15279-2 0  9999
2 14228  82.9673 148.3819 0093580 208.6852 304.4914 13.85120906155915
Epoch: 2026-03-13T16:01Z
TLE epoch observation values (Epoch: 2026-03-13T16:01:32.697Z)
Latitude
27.52693°
Longitude
-86.97121°
Altitude
910.778 km
Speed
7.418 km/s
True Right ascension
21h 38m 51s
True Declination
27° 23' 21"
Sunlit
Object was in daylight at epoch
Visualization orbit readout
Latitude
Unknown
Longitude
Unknown
Altitude
Unknown
Speed
Unknown
Apparent Right ascension
Unknown
Apparent Declination
Unknown
Sunlit
N/A
Visualization observer readout
Local Sidereal Time
06:13:20
Azimuth
Unknown
Elevation
Unknown
Doppler factor
Unknown
Orbital elements
Apogee altitude
1,011.423 km
Perigee altitude
874.403 km
Semi-major axis
7,321.05 km
Eccentricity
0.00936
Inclination
82.9673°
RAAN
148.3819°
Arg. of periapsis
208.6852°
True anomaly
303.6017°
Mean anomaly
304.4914°
Eccentric anomaly
304.04714°
Mean motion
3.46484 °/min
Orbital period
103.9 mins
BSTAR
0.0015279
Loading maneuver chart data...
Computing Atmospheric mass density...
Loading historical data...
Loading historical data...
Loading historical data...
Loading historical data...
Loading historical data...
Loading historical data...
Loading historical data...

Documentation

Showing up to 5 results
|